Hourly Data Report for October 21, 2015

All times are specified in Local Standard Time (LST). Add 1 hour to adjust for Daylight Saving Time where and when it is observed.

CHARLOTTETOWN A
PRINCE EDWARD ISLAND

46°17'21.000" N
63°07'09.000" W
48.50 m
8300301
71706
YYG

Download Data

Hourly Data (October 2015)
Hourly Data Report for October 21, 2015
Temp Definition
°C
Dew Point Temp Definition
°C
Rel Hum Definition
%
Wind Dir Definition
10's deg

Wind Spd Definition
km/h
Visibility Definition
km
Stn Press Definition
kPa
Hmdx Definition


Wind Chill Definition


Weather Definition


TIME
00:00 Legend Double Dagger 6.9 -3.1 49 28 13 24.1 101.04     LegendNANA
01:00 Legend Double Dagger 5.5 -3.8 51 28 13 24.1 101.11     LegendNANA
02:00 Legend Double Dagger 4.4 -4.1 54 26 10 24.1 101.17     Clear
03:00 Legend Double Dagger 4.1 -3.7 57 27 13 24.1 101.21     LegendNANA
04:00 Legend Double Dagger 3.0 -3.6 62 24 14 24.1 101.29     LegendNANA
05:00 Legend Double Dagger 2.2 -4.3 62 25 9 24.1 101.36     Clear
06:00 Legend Double Dagger 1.8 -3.9 66 24 12 24.1 101.43     LegendNANA
07:00 Legend Double Dagger 1.1 -3.6 71 25 8 24.1 101.52     LegendNANA
08:00 Legend Double Dagger 2.9 -3.3 64 26 12 24.1 101.61     Mainly Clear
09:00 Legend Double Dagger 4.4 -4.4 53 29 19 24.1 101.65     LegendNANA
10:00 Legend Double Dagger 5.3 -3.8 52 30 22 24.1 101.69     LegendNANA
11:00 Legend Double Dagger 6.0 -3.1 52 28 18 24.1 101.69     Mainly Clear
12:00 Legend Double Dagger 6.9 -3.1 49 30 17 24.1 101.70     LegendNANA
13:00 Legend Double Dagger 6.5 -4.0 47 30 18 24.1 101.73     LegendNANA
14:00 Legend Double Dagger 7.3 -2.4 50 28 17 24.1 101.76     Mostly Cloudy
15:00 Legend Double Dagger 6.9 -3.6 47 28 16 24.1 101.83     LegendNANA
16:00 Legend Double Dagger 6.7 -3.5 48 28 15 24.1 101.90     LegendNANA
17:00 Legend Double Dagger 5.1 -3.4 54 30 11 24.1 101.94     Mostly Cloudy
18:00 Legend Double Dagger 3.0 -2.9 65 28 5 24.1 102.06     LegendNANA
19:00 Legend Double Dagger 3.6 -3.5 60 25 8 24.1 102.13     LegendNANA
20:00 Legend Double Dagger 2.8 -3.3 64 28 8 24.1 102.17     Mostly Cloudy
21:00 Legend Double Dagger 2.8 -3.8 62 25 8 24.1 102.20     LegendNANA
22:00 Legend Double Dagger 2.1 -3.4 67 27 11 24.1 102.23     LegendNANA
23:00 Legend Double Dagger 1.9 -3.2 69 27 11 24.1 102.25     Mostly Cloudy

Notes on Data Quality.

Legend

  • E = Estimated
  • M = Missing
  • NA = Not Available
  • ‡ = Partner data that is not subject to review by the National Climate Archives
Date modified: